Weather in Costa Teguise

Spain     28°59′50″N   13°30′00″W
temp.,
°C
wind,
m/s
gust,
m/s
humid.,
%
clouds,
%
prec.,
mm/h
press.,
hPa
HPBL,
m
21 january, thu
thu2100:00+16wnw11740 0.0 1025190
03:00+16n11810 0.0 1023212
06:00+16sw22820 0.0 1024134
09:00+17wnw11790 0.0 102584
12:00+19nw12720 0.0 1027388
15:00+19nne33746 0.0 1024516
18:00+19n23783 0.0 1025331
21:00+19n22830 0.0 102683
22 january, fri
fri2200:00+18nnw33850 0.0 1026170
03:00+18nne34870 0.0 1025225
06:00+17nne45890 0.0 1024259
09:00+18n34911 0.0 1026311
12:00+19nne45827 0.0 1027462
15:00+20nne677920 0.0 1025540
18:00+19nne798712 0.0 1025537
21:00+18nne589078 0.0 1026428
23 january, sat
sat2300:00+18nne579369 0.0 1026398
03:00+17nne679232 0.0 1024395
06:00+17nne578927 0.0 1023368
09:00+17nne688834 0.0 1025524
12:00+18ne787941 0.0 1024562
15:00+18nne787426 0.0 1023585
18:00+17nne577833 0.0 1022526
21:00+17nne687889 0.0 1024494
24 january, sun
sun2400:00+17nne577691 0.0 1023441
03:00+17nne677899 0.0 1022351
06:00+16nne568096 0.0 1021321
09:00+17nne577869 0.0 1022458
12:00+18nne567146 0.0 1022482
15:00+19nne67710 0.0 1020467
18:00+18nne67800 0.0 1020443
21:00+17nne67880 0.0 1022404
25 january, mon
mon2500:00+17nne57903 0.0 1022369
03:00+17nne58903 0.0 1021375
06:00+17nne69904 0.0 1021426
09:00+18nne68867 0.0 1023561
12:00+19nne78775 0.0 1024601
15:00+19nne79750 0.0 1022648
18:00+18nne810800 0.0 1023597
21:00+18nne811840 0.0 1024567